Oxford, NC

11:19 AM EST on January 16, 2017 (GMT -0500)
Henderson-Oxford

Weather History for KHNZ - October, 2013

Change the Weather History Date:

Sunday, October 20, 2013

  Actual Average (KTDF) Record (KTDF)
Temperature  
Mean Temperature 52 °F -  
Max Temperature 61 °F 67 °F 89 °F (2005)
Min Temperature 43 °F 42 °F 23 °F (1992)
Degree Days  
Heating Degree Days 13    
Growing Degree Days 2 (Base 50)    
Moisture  
Dew Point 41 °F    
Average Humidity 68    
Maximum Humidity 94    
Minimum Humidity 33    
Precipitation  
Precipitation 0.00 in - - ()
Sea Level Pressure  
Sea Level Pressure 30.05 in    
Wind  
Wind Speed 2 mph (North)    
Max Wind Speed 9 mph    
Max Gust Speed -    
Visibility 10 miles    
Events      
Averages and records for this station are not official NWS values.
T = Trace of Precipitation, MM = Missing Value Source: NWS Daily Summary

Daily Weather History Graph

Daily Weather History Graph

Search for Another Location

Airport or City:

Trip Planner

Search our weather history database for the weather conditions in past years. The results will help you decide how hot, cold, wet, or windy it might be!

Date:

Astronomy

Oct. 20, 2013 Rise Set
Actual Time 7:25 AM EDT 6:31 PM EDT
Civil Twilight 6:59 AM EDT 6:57 PM EDT
Nautical Twilight 6:29 AM EDT 7:27 PM EDT
Astronomical Twilight 5:59 AM EDT 7:57 PM EDT
Moon 7:41 PM EDT (10/20) 8:58 AM EDT (10/20)
Length of Visible Light 11h 57m
Length of Day
11h 05m
Full, 97% of the Moon is Illuminated
Oct 20
Full
Oct 26
Last Quarter
Nov 3
New
Nov 10
First Quarter
Nov 17
Full

Hourly Weather History & Observations

Time (EDT) Temp. Dew Point Humidity Pressure Visibility Wind Dir Wind Speed Gust Speed Precip Events Conditions
12:15 AM 57.4 °F 55.6 °F 94% 29.91 in 5.0 mi Calm Calm - N/A   Clear
12:35 AM 57.2 °F 55.4 °F 94% 29.92 in 5.0 mi Calm Calm - N/A   Clear
12:55 AM 57.2 °F 55.2 °F 93% 29.92 in 5.0 mi WNW 3.5 mph - N/A   Clear
1:15 AM 56.5 °F 54.5 °F 93% 29.92 in 7.0 mi Calm Calm - N/A   Clear
1:35 AM 56.1 °F 53.8 °F 92% 29.93 in 7.0 mi NW 3.5 mph - N/A   Clear
1:55 AM 55.6 °F 52.9 °F 91% 29.93 in 10.0 mi Calm Calm - N/A   Clear
2:15 AM 55.4 °F 52.5 °F 90% 29.94 in 10.0 mi Calm Calm - N/A   Clear
2:35 AM 54.9 °F 52.0 °F 90% 29.94 in 10.0 mi Calm Calm - N/A   Clear
2:55 AM 54.5 °F 50.7 °F 87% 29.94 in 10.0 mi Calm Calm - N/A   Clear
3:15 AM 53.6 °F 49.6 °F 86% 29.95 in 10.0 mi WNW 3.5 mph - N/A   Clear
3:35 AM 52.9 °F 48.4 °F 85% 29.96 in 10.0 mi Calm Calm - N/A   Clear
3:55 AM 52.3 °F 47.7 °F 84% 29.97 in 10.0 mi NW 3.5 mph - N/A   Clear
4:15 AM 51.4 °F 46.8 °F 84% 29.97 in 10.0 mi NNW 3.5 mph - N/A   Clear
4:35 AM 50.9 °F 46.4 °F 85% 29.97 in 10.0 mi North 4.6 mph - N/A   Clear
4:55 AM 49.6 °F 44.8 °F 83% 29.98 in 10.0 mi North 4.6 mph - N/A   Clear
5:15 AM 48.9 °F 43.7 °F 82% 29.98 in 10.0 mi NNW 3.5 mph - N/A   Clear
5:35 AM 48.4 °F 43.0 °F 82% 29.99 in 10.0 mi Calm Calm - N/A   Clear
5:55 AM 48.0 °F 42.4 °F 81% 29.99 in 10.0 mi Calm Calm - N/A   Clear
6:15 AM 47.3 °F 41.5 °F 80% 30.00 in 10.0 mi Calm Calm - N/A   Clear
6:35 AM 46.2 °F 41.2 °F 83% 30.01 in 10.0 mi Calm Calm - N/A   Clear
6:55 AM 45.1 °F 41.7 °F 88% 30.01 in 10.0 mi Calm Calm - N/A   Clear
7:15 AM 44.6 °F 41.5 °F 89% 30.02 in 10.0 mi Calm Calm - N/A   Clear
7:35 AM 43.7 °F 41.0 °F 90% 30.03 in 10.0 mi Calm Calm - N/A   Clear
7:55 AM 43.7 °F 41.2 °F 91% 30.04 in 10.0 mi Calm Calm - N/A   Clear
8:15 AM 45.3 °F 40.6 °F 84% 30.05 in 10.0 mi Calm Calm - N/A   Clear
8:35 AM 47.3 °F 39.4 °F 74% 30.06 in 10.0 mi NNW 3.5 mph - N/A   Clear
8:55 AM 48.2 °F 39.7 °F 73% 30.07 in 10.0 mi North 4.6 mph - N/A   Clear
9:15 AM 48.7 °F 38.7 °F 68% 30.08 in 10.0 mi North 5.8 mph - N/A   Clear
9:35 AM 49.6 °F 39.4 °F 68% 30.09 in 10.0 mi North 3.5 mph - N/A   Clear
9:55 AM 51.3 °F 39.7 °F 65% 30.10 in 10.0 mi North 6.9 mph - N/A   Clear
10:15 AM 52.3 °F 39.9 °F 63% 30.10 in 10.0 mi North 6.9 mph - N/A   Clear
10:35 AM 53.4 °F 37.8 °F 55% 30.10 in 10.0 mi North 9.2 mph - N/A   Clear
10:55 AM 54.7 °F 38.1 °F 54% 30.10 in 10.0 mi NNW 6.9 mph - N/A   Clear
11:15 AM 55.6 °F 37.0 °F 50% 30.11 in 10.0 mi NNE 5.8 mph - N/A   Clear
11:35 AM 56.7 °F 36.5 °F 47% 30.11 in 10.0 mi ENE 6.9 mph - N/A   Clear
11:55 AM 57.2 °F 36.1 °F 45% 30.11 in 10.0 mi North 5.8 mph - N/A   Clear
12:15 PM 58.3 °F 35.8 °F 43% 30.11 in 10.0 mi North 9.2 mph - N/A   Clear
12:35 PM 58.6 °F 35.6 °F 42% 30.10 in 10.0 mi North 3.5 mph - N/A   Clear
12:55 PM 59.2 °F 35.1 °F 40% 30.10 in 10.0 mi ENE 8.1 mph - N/A   Clear
1:15 PM 59.4 °F 34.0 °F 39% 30.09 in 10.0 mi NNE 8.1 mph - N/A   Clear
1:35 PM 60.4 °F 34.0 °F 37% 30.09 in 10.0 mi NNE 4.6 mph - N/A   Clear
1:55 PM 59.5 °F 32.9 °F 37% 30.08 in 10.0 mi Calm Calm - N/A   Clear
2:15 PM 60.8 °F 32.7 °F 35% 30.07 in 10.0 mi Calm Calm - N/A   Clear
2:35 PM 61.2 °F 33.1 °F 35% 30.07 in 10.0 mi ENE 5.8 mph - N/A   Clear
2:55 PM 60.8 °F 32.0 °F 34% 30.07 in 10.0 mi Calm Calm - N/A   Clear
3:15 PM 61.7 °F 32.7 °F 34% 30.06 in 10.0 mi North 3.5 mph - N/A   Clear
3:35 PM 61.7 °F 32.5 °F 33% 30.05 in 10.0 mi ENE 3.5 mph - N/A   Clear
3:55 PM 61.2 °F 32.0 °F 33% 30.06 in 10.0 mi Calm Calm - N/A   Clear
4:15 PM 61.7 °F 32.2 °F 33% 30.06 in 10.0 mi Calm Calm - N/A   Clear
4:35 PM 61.9 °F 32.4 °F 33% 30.06 in 10.0 mi Calm Calm - N/A   Clear
4:55 PM 61.3 °F 31.8 °F 33% 30.06 in 10.0 mi Calm Calm - N/A   Clear
5:15 PM 61.2 °F 32.9 °F 35% 30.06 in 10.0 mi Calm Calm - N/A   Clear
5:35 PM 60.4 °F 34.0 °F 37% 30.06 in 10.0 mi Calm Calm - N/A   Clear
5:55 PM 58.1 °F 36.7 °F 45% 30.07 in 10.0 mi Calm Calm - N/A   Clear
6:15 PM 55.9 °F 37.6 °F 50% 30.07 in 10.0 mi Calm Calm - N/A   Clear
6:35 PM 53.2 °F 42.3 °F 66% 30.08 in 10.0 mi Calm Calm - N/A   Clear
6:55 PM 52.5 °F 40.3 °F 63% 30.08 in 10.0 mi Calm Calm - N/A   Clear
7:15 PM 50.4 °F 41.4 °F 71% 30.08 in 10.0 mi Calm Calm - N/A   Clear
7:35 PM 49.3 °F 41.9 °F 76% 30.09 in 10.0 mi Calm Calm - N/A   Clear
7:55 PM 49.3 °F 43.3 °F 80% 30.09 in 10.0 mi Calm Calm - N/A   Clear
8:15 PM 48.4 °F 41.2 °F 76% 30.10 in 10.0 mi Calm Calm - N/A   Clear
8:35 PM 48.4 °F 41.4 °F 77% 30.10 in 10.0 mi Calm Calm - N/A   Clear
8:55 PM 47.3 °F 41.9 °F 82% 30.11 in 10.0 mi Calm Calm - N/A   Clear
9:15 PM 46.6 °F 42.6 °F 86% 30.10 in 10.0 mi Calm Calm - N/A   Clear
9:35 PM 45.7 °F 41.5 °F 85% 30.11 in 10.0 mi Calm Calm - N/A   Clear
9:55 PM 46.4 °F 42.8 °F 87% 30.12 in 10.0 mi Calm Calm - N/A   Clear
10:15 PM 45.3 °F 40.8 °F 84% 30.12 in 10.0 mi Calm Calm - N/A   Clear
10:35 PM 45.3 °F 40.5 °F 83% 30.12 in 10.0 mi Calm Calm - N/A   Clear
10:55 PM 45.0 °F 41.0 °F 86% 30.13 in 10.0 mi Calm Calm - N/A   Clear
11:15 PM 45.0 °F 41.5 °F 88% 30.13 in 10.0 mi Calm Calm - N/A   Clear
11:35 PM 44.2 °F 40.1 °F 85% 30.13 in 10.0 mi Calm Calm - N/A   Clear
11:55 PM 43.3 °F 41.2 °F 92% 30.13 in 10.0 mi Calm Calm - N/A   Clear